Back to catalog

STARLINK-34717

AliveCommunicationsSSO
NORAD 65060·PAYLOAD·🇺🇸 United States

Launched Jul 31, 2025 from Vandenberg Space Force Base

Loading…

Next Passes (next 24 hours)

TLE

FreshSource: CelesTrak SupGP

Epoch: Sep 14, 2026, 23:01 UTC

1 65060C 25165E   26257.95951389  .02072900  00000+0  85145-1 0  2577
2 65060  97.2841 329.2916 0001394  87.1548  83.8719 15.23227799    16

Track STARLINK-34717 in real time with AllMySat

Download on the App Store